Temp
55 51 47 54 56 55 54 52 52 56 64 60 56 55 61 67 64 63 66 67 67 68 63 62 60 60 60 60 61 60 59 58 58 58 58 57 58 59 60 61 62 62 62 63
52 48 58 60 58 56 54 51 51 56 63 59 56 56 62 65 66 64 68 69 68 61 59 58 57 59 61 61 61 58 59 58 58 58 58 59 59 59 60 60 62 63 63 62
51 56 63 59 56 53 52 51 52 51 60 58 54 53 57 63 64 65 65 65 63 62 60 57 57 57 59 60 59 60 59 59 59 59 59 58 58 59 59 59 60 61 62 62
53 62 59 55 53 56 48 58 58 55 51 42 53 37 52 57 62 62 65 64 64 62 57 57 56 56 59 60 60 60 59 59 60 60 59 59 58 57 58 58 59 60 62 63
49 55 55 53 55 60 53 63 58 56 49 44 47 41 50 53 55 61 64 65 63 60 57 56 56 58 60 59 60 59 59 59 60 59 59 59 58 58 58 58 59 60 60 62
54 61 62 57 63 62 64 57 53 49 44 37 47 45 43 50 58 61 62 63 60 55 55 55 57 60 57 58 58 58 59 59 59 59 60 60 59 58 57 58 58 58 58 60
50 53 57 63 54 58 56 47 34 29 29 32 50 44 51 56 60 63 64 63 56 53 54 56 59 58 57 57 57 58 59 59 59 60 60 60 60 59 58 58 57 57 57 58
41 38 54 60 56 52 55 49 36 30 31 39 49 41 50 60 64 63 65 62 55 52 54 57 59 58 58 58 58 59 59 59 59 60 60 59 60 58 58 58 58 57 57 58
41 44 57 62 64 63 52 45 52 42 44 38 41 50 58 61 64 61 59 56 53 52 53 56 58 58 57 57 58 59 58 59 59 60 59 59 59 58 58 59 58 58 58 59
47 40 54 59 61 64 56 57 44 43 33 30 40 43 48 54 60 59 56 55 52 52 54 56 57 56 57 58 58 58 59 59 60 60 60 61 60 60 59 59 58 59 59 60
44 43 46 54 51 50 48 46 44 47 39 33 32 41 53 58 61 60 58 56 52 53 55 57 56 57 58 57 58 58 58 60 60 60 60 62 61 60 59 59 59 60 60 60
42 37 39 48 55 62 58 51 47 44 39 41 41 42 58 59 58 59 60 58 54 54 55 57 58 56 56 57 57 58 58 60 60 61 61 62 62 61 60 60 60 60 60 61
42 35 34 38 47 51 53 56 55 46 42 43 40 42 60 58 58 59 58 57 55 54 54 55 55 57 57 56 57 58 58 60 60 61 61 61 61 60 60 59 60 60 60 61
45 35 34 38 42 48 45 53 56 49 38 42 47 48 56 58 58 57 57 55 54 55 57 57 56 56 57 58 58 59 59 60 60 61 61 60 60 61 60 60 60 60 61 61
37 30 37 40 45 48 50 52 54 50 53 47 49 51 54 60 58 57 56 54 56 56 56 58 58 56 56 56 58 59 60 60 60 61 61 60 60 61 60 60 60 61 62 62
39 30 36 36 47 49 48 52 53 55 55 55 51 53 60 60 58 58 58 58 58 58 60 60 60 59 57 59 58 59 60 60 60 61 61 61 61 62 61 60 61 61 61 62
35 32 32 29 40 45 42 51 53 52 57 57 50 61 56 57 59 59 58 60 60 61 62 61 61 61 60 60 61 59 60 59 60 61 62 62 63 62 61 61 61 60 60 60
38 35 33 29 36 30 47 57 60 56 56 56 59 59 60 63 65 63 65 63 62 63 63 63 63 62 60 61 60 60 60 60 60 61 62 63 63 63 62 61 60 58 58 59
44 35 33 27 28 42 48 45 42 45 46 47 48 52 56 60 61 62 65 67 66 66 67 66 65 63 59 61 61 61 59 60 61 61 62 63 63 62 61 60 59 58 58 58
42 41 35 30 27 32 38 46 51 50 41 47 48 48 49 51 54 62 63 66 64 65 67 66 65 63 62 61 61 61 59 60 61 62 63 63 63 62 61 60 58 58 58 59
35 33 31 30 27 37 45 47 52 42 38 46 48 48 47 48 59 59 64 67 68 67 66 66 64 64 63 62 62 62 60 60 64 65 63 63 62 62 61 59 58 58 57 58
33 31 31 30 29 32 48 47 38 44 46 48 49 49 49 51 54 57 62 65 65 65 65 67 65 64 63 63 64 62 60 64 63 64 64 62 61 64 61 60 58 58 57 56
32 35 32 36 37 47 52 49 50 47 46 49 49 52 52 51 54 56 62 63 67 67 68 69 67 64 63 64 66 63 63 62 63 63 62 60 60 62 61 60 58 58 56 57
38 42 36 37 42 44 47 54 53 51 49 51 53 54 54 52 56 56 62 63 66 69 68 69 67 63 62 65 67 67 64 66 65 62 60 59 61 59 60 61 61 60 58 56
36 38 37 37 42 45 51 51 52 51 52 53 54 55 55 55 56 56 62 64 68 69 69 69 67 65 65 65 67 67 66 66 63 63 61 60 62 61 60 61 60 62 61 60
38 36 35 34 42 41 44 51 53 50 51 53 53 53 58 58 58 58 58 67 69 69 69 69 67 66 66 67 68 66 68 67 64 62 61 61 62 61 61 60 56 44 47 48
MSLP
1007.54 1007.59 1004.90 1005.74 1006.54 1006.95 1007.39 1007.40 1006.58 1005.84 1005.98 1006.04 1005.24 1004.98 1004.37 1003.19 1003.35 1002.76 1002.26 1001.93 1001.37 1001.03 1000.99 1001.28 1001.79 1002.66 1003.67 1004.39 1005.26 1006.18 1007.11 1008.14 1008.74 1009.33 1009.62 1009.59 1009.28 1009.16 1008.93 1008.81 1008.72 1008.79 1009.02 1009.14
1007.01 1003.82 1004.12 1005.32 1005.88 1006.19 1006.57 1006.73 1006.14 1005.99 1006.16 1006.03 1005.38 1004.77 1003.90 1003.19 1002.23 1001.98 1001.69 1001.17 1000.82 1000.98 1001.29 1001.70 1002.18 1002.86 1003.27 1003.96 1005.06 1006.16 1007.10 1007.95 1008.39 1008.75 1008.83 1008.71 1008.92 1008.93 1008.85 1008.71 1008.57 1008.50 1008.57 1008.71
1003.62 1000.72 1004.24 1004.48 1005.11 1005.62 1005.68 1005.76 1005.87 1006.29 1006.25 1005.84 1005.69 1004.74 1003.65 1002.47 1001.82 1001.25 1000.91 1000.60 1000.28 1000.58 1000.94 1001.71 1002.62 1003.07 1003.64 1004.48 1005.40 1006.10 1007.03 1007.77 1008.14 1008.27 1008.35 1008.64 1008.87 1008.85 1008.80 1008.72 1008.58 1008.54 1008.39 1008.45
1003.37 1003.14 1003.08 1003.73 1003.84 1004.59 1004.75 1004.89 1005.66 1006.42 1006.93 1006.72 1005.86 1005.12 1004.29 1002.82 1001.52 1000.79 1000.12 999.85 999.96 1000.45 1001.74 1002.07 1002.88 1003.58 1004.04 1004.82 1005.32 1005.98 1006.99 1007.60 1007.77 1007.92 1008.28 1008.61 1008.91 1009.08 1008.96 1008.84 1008.74 1008.62 1008.46 1008.37
1001.13 1001.63 1002.25 1002.29 1001.51 1003.11 1003.07 1004.41 1005.51 1006.30 1006.67 1006.82 1006.43 1006.42 1003.62 1002.83 1001.67 1000.49 999.83 999.40 999.74 1000.54 1001.48 1002.41 1003.06 1003.65 1004.30 1005.02 1005.55 1006.18 1006.97 1007.39 1007.52 1007.81 1008.17 1008.51 1008.72 1008.86 1008.79 1008.75 1008.77 1008.69 1008.58 1008.54
1000.91 1000.47 1000.84 1000.87 1001.69 1002.49 1003.34 1004.35 1005.27 1006.27 1006.97 1006.58 1006.04 1006.37 1003.36 1002.36 1000.68 1000.01 999.34 999.53 1000.12 1000.89 1001.86 1002.64 1003.41 1003.89 1004.65 1005.29 1005.84 1006.46 1006.96 1007.27 1007.52 1007.85 1008.11 1008.32 1008.53 1008.65 1008.77 1008.80 1008.83 1008.85 1008.82 1008.76
1001.22 1000.69 1000.21 1000.43 1001.60 1002.07 1003.10 1004.66 1006.54 1007.05 1007.63 1006.78 1005.30 1005.26 1002.41 1000.43 999.92 999.38 999.11 999.52 1000.40 1001.93 1002.06 1002.93 1003.35 1004.02 1004.88 1005.56 1006.06 1006.52 1006.87 1007.28 1007.51 1007.81 1008.04 1008.20 1008.36 1008.60 1008.75 1008.69 1008.83 1008.91 1008.92 1008.97
1000.95 1000.72 1000.05 999.52 999.94 1000.92 1001.93 1003.56 1005.33 1006.98 1007.14 1006.04 1004.06 1003.37 1000.31 999.03 998.66 998.55 998.74 999.53 1000.75 1002.51 1002.45 1002.89 1003.33 1003.99 1004.72 1005.47 1006.08 1006.41 1006.82 1007.22 1007.45 1007.72 1007.96 1008.10 1008.29 1008.60 1008.59 1008.66 1008.75 1008.81 1008.94 1009.05
1000.80 1000.11 998.84 998.74 998.95 1000.08 1001.63 1002.92 1004.25 1005.53 1005.83 1005.64 1003.87 1001.43 999.35 998.11 997.72 997.93 998.58 999.85 1001.11 1002.39 1002.83 1002.83 1003.48 1004.00 1004.66 1005.40 1005.91 1006.22 1006.74 1007.11 1007.33 1007.55 1007.87 1008.07 1008.29 1008.44 1008.55 1008.64 1008.68 1008.81 1009.02 1009.11
1000.61 1000.09 998.71 998.46 998.82 999.26 999.89 1001.73 1003.75 1004.77 1005.45 1005.35 1003.23 1001.48 999.52 998.19 997.87 997.98 999.09 1000.23 1001.57 1002.35 1002.95 1003.09 1003.65 1004.15 1004.71 1005.28 1005.69 1006.20 1006.53 1006.86 1007.11 1007.45 1007.73 1007.93 1008.07 1008.26 1008.58 1008.66 1008.71 1008.87 1009.16 1009.19
1001.92 1000.73 999.67 998.67 998.05 998.67 1000.01 1001.00 1002.16 1003.28 1004.29 1004.07 1003.46 1000.92 998.64 997.92 997.79 998.35 998.90 999.85 1001.47 1001.87 1002.55 1002.97 1003.46 1004.13 1004.67 1005.25 1005.81 1006.25 1006.55 1006.83 1007.03 1007.35 1007.63 1007.79 1007.90 1008.26 1008.57 1008.62 1008.80 1008.97 1009.16 1009.24
1003.99 1002.65 1000.91 999.19 997.95 998.18 998.83 999.60 1000.71 1001.90 1002.60 1002.93 1001.93 1000.02 997.84 997.34 997.51 998.22 998.79 999.77 1001.16 1002.16 1002.34 1002.85 1003.33 1004.23 1004.88 1005.25 1005.92 1006.27 1006.47 1006.71 1006.88 1007.26 1007.52 1007.74 1007.81 1008.29 1008.53 1008.60 1008.84 1009.03 1009.24 1009.33
1005.61 1003.71 1002.25 1000.41 998.99 998.40 998.33 998.82 999.73 1000.56 1001.62 1001.65 1001.53 999.49 997.55 997.30 997.41 997.97 999.02 999.86 1000.98 1002.03 1002.63 1003.05 1003.66 1004.39 1004.80 1005.25 1005.76 1006.17 1006.37 1006.54 1006.85 1007.24 1007.47 1007.78 1007.95 1008.34 1008.52 1008.62 1008.83 1009.07 1009.33 1009.51
1006.40 1005.07 1003.25 1000.71 999.03 998.34 998.57 998.69 999.15 1000.01 1000.74 1000.56 999.31 998.86 997.94 997.52 997.79 998.11 998.91 999.92 1000.72 1001.79 1002.38 1002.82 1003.62 1004.15 1004.61 1005.11 1005.57 1005.96 1006.26 1006.45 1006.79 1007.20 1007.52 1007.75 1008.01 1008.31 1008.53 1008.61 1008.79 1009.10 1009.40 1009.59
1007.59 1006.23 1004.29 1002.30 1000.54 999.44 998.23 998.05 998.46 998.93 999.22 999.51 998.63 998.24 997.57 997.38 997.35 997.88 998.63 999.83 1000.60 1001.41 1001.95 1002.35 1003.10 1003.76 1004.47 1004.97 1005.41 1005.81 1006.01 1006.39 1006.77 1007.19 1007.60 1007.80 1008.05 1008.31 1008.59 1008.72 1008.84 1009.11 1009.38 1009.66
1007.91 1006.73 1005.08 1002.94 1001.08 999.71 999.00 998.05 998.01 997.70 998.21 998.63 998.32 997.57 996.76 996.75 997.24 998.07 998.09 999.07 999.87 1000.51 1001.09 1001.84 1002.49 1003.12 1003.94 1004.46 1005.00 1005.64 1005.96 1006.35 1006.72 1007.09 1007.56 1007.79 1008.08 1008.35 1008.71 1008.87 1008.99 1009.29 1009.49 1009.77
1007.99 1007.19 1005.94 1004.09 1002.29 1000.49 998.84 997.05 997.62 997.80 997.90 997.91 997.95 996.07 996.79 996.90 996.97 997.29 997.35 998.11 998.70 999.46 1000.17 1000.88 1001.67 1002.34 1003.24 1003.77 1004.36 1005.25 1005.76 1006.23 1006.65 1006.98 1007.45 1007.76 1008.04 1008.40 1008.81 1009.03 1009.24 1009.48 1009.81 1009.92
1007.15 1007.25 1006.61 1004.88 1002.80 1000.86 997.76 996.76 997.08 997.94 998.11 998.18 997.86 997.01 996.46 996.08 995.54 995.56 995.60 996.46 997.58 998.50 999.43 1000.18 1000.86 1001.88 1002.70 1003.38 1003.99 1004.70 1005.48 1006.10 1006.52 1006.95 1007.32 1007.75 1007.94 1008.38 1008.86 1009.32 1009.71 1009.83 1010.07 1010.27
1006.68 1007.21 1006.39 1005.31 1003.34 1000.62 998.94 999.70 999.92 999.26 999.72 1000.05 999.38 998.36 997.58 996.67 995.81 995.54 995.05 995.08 995.70 996.60 997.60 998.66 999.71 1000.90 1002.03 1002.88 1003.47 1004.42 1005.36 1005.94 1006.37 1006.75 1007.12 1007.59 1007.96 1008.35 1008.87 1009.35 1009.76 1010.17 1010.42 1010.60
1006.27 1005.91 1006.23 1005.26 1004.05 1002.12 1002.33 1000.98 1000.58 1000.58 1001.24 1001.18 1000.81 1000.06 999.43 998.24 997.23 995.14 994.28 994.69 995.55 996.47 997.37 998.34 999.43 1000.52 1001.48 1002.42 1003.16 1004.09 1004.94 1005.67 1006.07 1006.35 1006.72 1007.25 1007.72 1008.16 1008.75 1009.26 1009.67 1010.13 1010.50 1010.70
1006.22 1006.10 1005.99 1005.46 1004.37 1002.88 1002.43 1001.01 1000.09 1001.59 1002.68 1001.95 1001.44 1000.85 1000.20 999.17 996.64 995.69 995.02 993.75 994.37 995.15 996.48 997.75 999.07 999.95 1000.75 1001.86 1002.78 1003.70 1004.43 1005.03 1005.33 1005.82 1006.43 1007.09 1007.57 1007.96 1008.42 1009.12 1009.63 1010.07 1010.61 1011.01
1006.48 1006.55 1006.17 1005.65 1004.54 1003.73 1002.69 1001.33 1002.08 1003.38 1002.78 1002.36 1001.62 1000.93 1000.04 998.90 997.55 996.03 995.50 994.61 994.29 994.99 996.39 997.47 998.40 999.41 1000.32 1001.22 1002.22 1003.15 1003.83 1004.15 1004.99 1005.58 1006.23 1006.88 1007.44 1007.87 1008.54 1009.05 1009.68 1010.18 1010.59 1011.18
1007.26 1007.25 1006.78 1006.14 1005.01 1003.99 1003.57 1003.47 1003.35 1003.36 1003.11 1002.17 1001.57 1000.56 999.54 998.44 997.26 995.95 994.85 994.46 994.29 994.40 995.29 996.30 997.45 998.84 999.88 1000.51 1001.27 1002.18 1002.88 1003.87 1004.68 1005.44 1006.03 1006.69 1007.33 1007.88 1008.38 1009.01 1009.70 1010.38 1010.70 1011.12
1007.20 1007.12 1006.94 1006.13 1005.04 1004.19 1003.53 1003.18 1003.13 1003.06 1002.57 1001.85 1001.09 1000.10 999.12 998.09 996.87 995.44 994.34 994.05 994.20 994.02 994.87 995.73 997.02 998.23 999.16 999.95 1000.45 1000.83 1002.16 1003.20 1004.25 1005.17 1005.85 1006.45 1007.18 1007.87 1008.41 1008.88 1009.46 1010.08 1010.70 1011.23
1007.34 1007.57 1007.04 1006.10 1005.29 1004.29 1002.98 1003.32 1003.08 1002.47 1001.94 1001.15 1000.30 999.59 998.58 997.50 996.15 995.12 993.87 993.32 993.29 993.72 994.36 995.14 996.03 997.11 997.99 999.12 1000.00 1000.73 1001.52 1002.59 1003.75 1004.66 1005.52 1006.26 1006.85 1007.50 1008.26 1008.79 1009.28 1009.66 1009.99 1010.29
1008.31 1008.07 1006.84 1006.05 1006.07 1005.88 1004.50 1003.66 1003.03 1002.54 1001.80 1000.90 1000.16 998.89 997.69 996.78 995.57 994.72 993.68 992.68 992.70 993.61 993.84 994.71 995.49 996.46 997.35 998.34 999.21 1000.10 1000.87 1001.73 1002.89 1004.21 1005.09 1005.76 1006.43 1007.14 1007.79 1008.58 1009.52 1009.80 1009.81 1010.04
Wind_Speed
8 8 25 22 16 6 5 12 16 4 3 7 10 8 15 19 7 11 14 15 14 13 5 2 8 12 13 12 14 12 10 7 5 2 2 3 3 2 2 3 4 4 4 5
7 31 20 13 17 17 12 13 16 8 3 6 10 13 16 15 16 9 17 19 15 5 3 4 7 10 14 15 13 10 8 8 5 3 3 2 1 2 3 3 3 3 4 4
26 25 15 17 13 16 17 20 16 10 5 6 7 12 14 13 9 8 11 12 9 10 10 6 7 7 10 14 12 11 9 8 6 5 2 2 1 1 2 2 2 2 3 3
19 21 20 12 20 16 20 16 15 11 3 7 5 7 11 10 17 7 12 8 9 6 2 7 8 9 12 10 9 9 8 8 6 6 3 3 2 1 2 1 1 2 1 1
13 18 21 24 24 21 13 10 9 8 7 2 3 4 6 5 10 14 11 11 9 4 8 8 9 11 10 9 9 8 8 7 5 5 4 3 2 2 1 0 1 1 2 2
11 7 23 10 12 16 7 5 5 4 1 8 13 7 5 7 11 7 5 4 3 6 8 9 8 11 8 7 7 7 8 6 5 5 4 4 3 3 1 0 1 2 1 1
6 14 1 8 6 7 8 8 1 4 0 6 6 8 13 10 9 9 12 7 5 3 11 12 15 12 10 9 8 7 7 6 6 5 4 4 4 3 2 1 1 1 1 1
9 5 17 6 10 10 16 11 9 6 4 6 7 9 10 13 13 11 10 4 8 7 8 11 13 12 12 9 8 8 7 5 6 4 5 4 4 2 1 1 1 1 1 2
7 7 4 15 8 20 9 12 10 2 1 1 4 8 8 6 7 3 1 5 8 8 7 12 11 10 10 9 9 9 8 5 5 4 5 4 4 4 2 2 2 2 2 2
4 3 6 14 6 19 12 12 7 6 7 4 5 5 6 3 7 3 4 7 6 7 8 9 9 9 7 7 7 7 7 7 5 5 4 4 5 4 3 3 3 4 2 2
7 2 2 11 14 13 6 7 4 7 5 6 1 8 8 9 8 8 9 9 9 11 11 11 9 7 8 7 7 7 6 6 5 5 4 5 4 4 4 3 3 3 3 3
3 3 3 14 7 20 17 11 8 9 10 4 4 8 4 9 5 6 8 8 7 6 9 9 11 8 8 8 7 7 6 6 5 5 4 4 4 4 4 3 4 3 3 2
9 5 2 2 3 3 22 20 12 6 4 16 4 7 3 5 4 6 8 9 9 7 8 8 8 9 9 8 7 6 6 6 5 5 5 5 4 4 4 4 4 4 4 3
10 4 5 8 2 6 5 16 17 9 3 4 10 3 5 4 7 5 6 6 9 8 10 10 8 8 7 8 7 6 6 5 6 5 5 5 5 4 4 4 4 5 4 4
6 4 4 14 12 8 0 10 21 17 21 12 4 7 6 8 10 6 7 9 11 11 11 12 12 9 7 7 6 5 5 6 6 6 5 5 5 5 4 4 5 5 4 4
3 5 7 5 7 14 11 11 10 24 20 18 3 12 8 4 5 6 10 11 12 12 13 12 12 12 11 10 9 6 6 6 6 6 6 5 6 5 4 4 5 4 4 5
3 3 6 5 7 4 12 21 12 5 12 15 12 22 4 4 8 10 10 13 14 15 15 15 15 14 12 11 11 8 7 6 6 6 6 6 6 6 5 4 4 5 4 4
4 1 2 5 5 6 6 4 16 15 8 9 11 6 10 11 16 11 11 16 14 14 14 14 13 11 10 8 9 7 7 7 7 6 6 6 6 7 5 5 4 4 3 4
13 3 4 3 2 6 4 10 8 4 2 10 7 8 7 9 4 5 8 11 20 21 19 15 15 13 10 11 10 10 7 7 7 7 7 6 6 7 7 6 5 3 4 3
6 12 6 1 3 5 6 15 9 2 4 12 11 10 12 10 5 8 12 10 10 11 13 14 13 11 13 11 11 11 9 9 9 9 8 7 7 9 8 7 6 3 3 3
3 3 5 2 3 2 14 17 8 8 5 11 11 10 10 6 6 12 11 12 15 15 17 14 14 15 15 12 13 12 10 11 11 9 7 7 6 8 8 7 4 5 5 5
2 1 3 2 3 1 15 7 9 6 7 10 10 9 12 14 18 16 10 9 15 17 16 15 15 13 12 14 14 13 13 12 7 9 9 8 6 5 6 8 5 5 7 6
2 3 2 5 2 8 8 1 2 5 9 10 11 14 13 15 15 15 12 9 13 18 17 17 16 13 12 15 16 16 13 9 9 9 9 8 7 5 7 7 7 5 5 5
1 1 1 4 6 15 14 6 8 9 11 15 13 14 14 15 14 15 11 7 9 14 15 16 16 15 15 15 16 15 14 13 12 10 8 8 10 7 5 4 6 6 5 4
0 3 4 2 6 14 7 11 15 18 17 16 16 14 14 14 13 10 10 9 12 13 13 16 17 16 16 15 13 10 14 14 13 11 8 8 7 9 8 5 5 6 7 9
3 5 1 1 2 8 13 15 20 16 16 17 17 20 19 14 15 12 9 9 11 12 14 14 14 13 15 16 15 13 15 16 15 11 8 8 8 7 7 7 4 8 1 9
Wind_Direction
184 196 217 205 208 206 204 229 242 248 202 242 243 255 265 281 249 266 271 271 272 269 289 177 148 143 143 146 148 153 149 171 153 156 177 224 223 253 272 266 247 214 206 205
168 228 218 194 203 208 211 237 248 264 196 228 271 273 272 278 271 246 267 275 268 240 222 162 141 156 162 152 150 142 154 164 177 169 197 163 180 256 259 282 285 212 203 209
200 224 197 194 193 204 214 221 235 236 308 262 312 291 279 280 277 256 251 248 265 236 205 174 153 144 139 148 147 151 160 169 182 184 118 73 30 321 336 312 15 297 225 220
230 222 193 190 207 193 222 214 236 253 254 254 130 283 290 300 296 276 283 291 270 247 355 135 140 142 147 144 141 136 154 170 182 165 134 154 160 226 243 269 312 295 68 129
214 176 198 204 203 193 224 177 210 224 229 204 238 280 265 267 279 281 270 269 267 232 167 157 143 140 134 136 146 146 157 170 162 160 158 150 162 228 243 63 321 321 31 75
214 201 196 175 187 196 167 141 79 32 130 259 254 203 246 230 230 261 265 261 320 133 123 111 122 134 123 123 132 147 161 169 157 168 175 152 187 210 184 358 328 346 22 53
166 232 199 159 172 163 128 96 275 340 290 224 191 186 243 251 235 232 255 270 109 188 128 141 149 145 137 150 153 156 165 158 174 187 165 164 195 198 158 196 238 148 154 110
171 204 197 178 182 170 183 159 154 197 212 249 159 204 247 223 230 239 245 193 140 176 144 154 151 149 150 154 157 162 160 159 180 183 164 170 180 148 150 224 190 143 168 147
159 235 165 185 163 178 176 200 173 65 173 321 225 276 305 226 261 280 70 154 153 165 161 152 152 151 147 154 167 165 164 171 182 187 164 174 178 156 156 161 125 104 110 140
244 163 189 203 145 187 173 144 175 191 194 231 275 272 227 222 227 293 217 191 166 154 154 152 151 150 151 161 157 161 172 169 183 178 164 192 179 154 170 158 125 121 121 113
0 105 259 135 198 170 153 166 144 159 157 161 297 263 221 223 215 226 215 174 181 162 167 161 150 155 154 146 154 173 169 166 173 160 168 198 163 153 173 144 139 134 125 138
306 321 216 212 161 194 198 174 157 185 196 206 156 267 220 228 241 220 210 156 144 173 160 155 151 147 152 159 163 182 176 177 183 165 178 187 154 141 169 147 147 137 125 143
334 304 144 40 323 137 203 203 198 117 104 210 171 253 317 324 272 222 195 156 142 156 135 132 136 162 164 164 173 182 187 187 163 153 157 151 147 143 149 152 138 123 122 121
337 283 272 219 206 133 159 207 210 190 154 187 215 187 262 281 264 242 168 152 136 150 156 157 156 168 164 171 173 183 188 173 153 154 147 144 150 150 143 143 122 118 123 124
4 273 289 309 292 286 151 185 200 203 214 207 185 234 225 244 241 241 153 132 141 157 166 175 171 168 168 166 174 187 173 161 157 156 147 154 137 124 125 130 120 125 121 123
289 283 345 300 270 272 265 263 229 203 207 228 180 253 211 250 128 178 159 160 168 176 180 177 175 167 173 175 176 181 176 166 159 162 155 149 131 127 129 134 133 127 119 116
261 302 4 304 341 267 262 236 233 217 221 201 196 233 146 200 219 199 169 179 180 182 180 176 179 178 178 178 169 180 180 148 166 165 153 154 140 128 136 136 125 122 122 127
217 112 226 267 308 180 235 173 210 220 222 223 246 233 190 205 217 196 184 183 179 176 183 180 175 176 172 173 161 158 149 164 165 169 161 154 151 140 138 123 118 112 102 129
219 178 234 201 234 271 70 28 6 14 127 7 335 343 350 327 62 271 197 185 184 182 182 178 169 170 155 168 164 158 155 159 166 173 172 163 158 149 147 141 145 119 117 121
306 207 208 174 189 188 28 322 308 256 192 1 349 339 339 327 163 235 185 182 164 157 166 164 163 155 159 171 159 156 169 163 183 182 180 164 157 155 161 154 156 130 121 128
37 59 198 201 258 322 339 317 297 157 282 319 327 315 310 278 238 320 298 184 174 162 162 154 156 164 175 160 161 169 167 186 192 178 155 159 163 162 163 150 153 136 124 115
103 298 206 186 261 150 358 5 62 279 299 309 312 307 296 292 296 292 285 242 151 149 151 162 163 171 164 162 167 169 184 191 162 162 161 163 163 159 146 155 134 135 132 126
98 49 293 347 24 340 337 259 239 264 291 306 313 304 305 301 292 289 268 203 183 164 168 168 169 160 164 168 175 177 187 158 156 159 168 160 155 157 153 146 142 135 137 142
116 284 255 308 13 324 307 278 347 329 324 308 312 310 314 294 295 286 256 198 188 168 168 162 157 167 168 177 181 188 160 164 163 171 172 155 161 152 153 139 155 152 157 154
103 304 270 252 311 319 36 341 328 324 323 323 322 325 317 306 304 287 246 187 181 181 160 163 168 173 175 172 181 166 160 160 167 171 169 166 168 169 165 165 171 177 187 176
186 217 253 360 339 287 287 314 319 319 317 325 324 324 333 329 326 309 272 204 172 177 162 165 170 167 165 170 172 166 166 165 163 167 169 175 169 176 168 164 143 50 54 203